SWR477L EIDW-LSZH

Flight info

Callsign SWR477L
Flight time N/A
Altitude 33000
Route ENDEQ3J ENDEQ Q36 EPOXI L15 PIXUP/N0452F370 L15 FINMA DCT CHT DCT ITVIP DCT KONAN UL607 KOK DCT CIV DCT SUTAL DCT GTQ DCT BAMEV DCT BLM
Aircraft A320/M-SDE3FGHIRWY/LB1

Departure

Time N/A
Airport Dublin Airport (EIDW)

Arrival

Time 2026-05-06 14:53
Airport Zürich Airport (LSZH)
Time Latitude Longitude Altitude Speed Heading
2026-05-06 13:04 53.43268 -5.69608 11796 ft 353 kts 83°
2026-05-06 13:04 53.43545 -5.65491 12576 ft 358 kts 83°
2026-05-06 13:04 53.43823 -5.61321 13348 ft 363 kts 83°
2026-05-06 13:04 53.44102 -5.57092 14085 ft 367 kts 83°
2026-05-06 13:05 53.44385 -5.52805 14773 ft 371 kts 83°
2026-05-06 13:05 53.44542 -5.48457 15386 ft 379 kts 90°
2026-05-06 13:05 53.44449 -5.43940 15698 ft 393 kts 92°
2026-05-06 13:05 53.44333 -5.39328 16278 ft 399 kts 92°
2026-05-06 13:06 53.44210 -5.34715 16904 ft 403 kts 92°
2026-05-06 13:06 53.44085 -5.30007 17541 ft 406 kts 92°
2026-05-06 13:06 53.43956 -5.25250 18165 ft 410 kts 92°
2026-05-06 13:06 53.43825 -5.20455 18723 ft 413 kts 92°
2026-05-06 13:07 53.43696 -5.15624 19255 ft 417 kts 92°
2026-05-06 13:07 53.43558 -5.10747 19776 ft 420 kts 92°
2026-05-06 13:07 53.43410 -5.05834 20293 ft 424 kts 93°
2026-05-06 13:07 53.43253 -5.00889 20804 ft 427 kts 93°
2026-05-06 13:08 53.43091 -4.95966 21299 ft 430 kts 93°
2026-05-06 13:08 53.42924 -4.90939 21785 ft 433 kts 93°
2026-05-06 13:08 53.42756 -4.85873 22289 ft 437 kts 93°
2026-05-06 13:08 53.42583 -4.80768 22775 ft 440 kts 93°
2026-05-06 13:09 53.42410 -4.75630 23253 ft 443 kts 93°
2026-05-06 13:09 53.42236 -4.70458 23691 ft 446 kts 93°
2026-05-06 13:09 53.42059 -4.65247 24074 ft 449 kts 93°
2026-05-06 13:09 53.41881 -4.60008 24461 ft 452 kts 93°
2026-05-06 13:10 53.41698 -4.54735 24842 ft 454 kts 93°
2026-05-06 13:10 53.41511 -4.49436 25238 ft 456 kts 93°
2026-05-06 13:10 53.41320 -4.44191 25617 ft 459 kts 93°
2026-05-06 13:10 53.41121 -4.38839 26004 ft 461 kts 93°
2026-05-06 13:11 53.40918 -4.33468 26376 ft 463 kts 93°
2026-05-06 13:11 53.40715 -4.28062 26742 ft 465 kts 93°
2026-05-06 13:11 53.40513 -4.22635 27089 ft 468 kts 93°
2026-05-06 13:11 53.40308 -4.17186 27431 ft 470 kts 93°
2026-05-06 13:12 53.40099 -4.11716 27769 ft 472 kts 93°
2026-05-06 13:12 53.39884 -4.06203 28078 ft 475 kts 94°
2026-05-06 13:12 53.39666 -4.00746 28387 ft 477 kts 94°
2026-05-06 13:12 53.39442 -3.95190 28693 ft 479 kts 94°
2026-05-06 13:13 53.39216 -3.89613 29005 ft 482 kts 94°
2026-05-06 13:13 53.38988 -3.84005 29387 ft 482 kts 94°
2026-05-06 13:13 53.38755 -3.78417 29839 ft 481 kts 94°
2026-05-06 13:13 53.38519 -3.72839 30256 ft 480 kts 94°
2026-05-06 13:14 53.38174 -3.67293 30621 ft 479 kts 100°
2026-05-06 13:14 53.37383 -3.61886 30980 ft 477 kts 109°
2026-05-06 13:14 53.36196 -3.56787 31326 ft 476 kts 114°
2026-05-06 13:14 53.34890 -3.51703 31683 ft 476 kts 115°
2026-05-06 13:15 53.33416 -3.46767 32045 ft 473 kts 122°
2026-05-06 13:15 53.31552 -3.42252 32408 ft 471 kts 131°
2026-05-06 13:15 53.29410 -3.38122 32770 ft 470 kts 133°
2026-05-06 13:15 53.27248 -3.34032 33013 ft 470 kts 133°
2026-05-06 13:16 53.25105 -3.29976 33056 ft 469 kts 133°
2026-05-06 13:16 53.20768 -3.21777 33035 ft 469 kts 133°
2026-05-06 13:17 53.16479 -3.13698 33056 ft 468 kts 134°
2026-05-06 13:17 53.12158 -3.05582 33062 ft 468 kts 134°
2026-05-06 13:18 53.07832 -2.97501 33051 ft 467 kts 134°
2026-05-06 13:18 53.03507 -2.89454 33048 ft 467 kts 134°
2026-05-06 13:19 52.99185 -2.81402 33045 ft 466 kts 134°
2026-05-06 13:19 52.94888 -2.73437 33006 ft 466 kts 134°
2026-05-06 13:20 52.90548 -2.65447 33012 ft 466 kts 134°
2026-05-06 13:20 52.86209 -2.57483 33014 ft 466 kts 134°
2026-05-06 13:21 52.81867 -2.49527 33019 ft 466 kts 135°
2026-05-06 13:21 52.77524 -2.41576 33019 ft 466 kts 135°
2026-05-06 13:22 52.73180 -2.33654 33028 ft 465 kts 135°
2026-05-06 13:22 52.68854 -2.25804 33037 ft 465 kts 135°
2026-05-06 13:23 52.64497 -2.17935 33037 ft 465 kts 135°
2026-05-06 13:23 52.60138 -2.10060 33037 ft 465 kts 135°
2026-05-06 13:24 52.55784 -2.02208 33037 ft 465 kts 135°
2026-05-06 13:24 52.51417 -1.94382 33021 ft 464 kts 135°
2026-05-06 13:25 52.47047 -1.86580 33004 ft 464 kts 135°
2026-05-06 13:25 52.42681 -1.78809 33012 ft 463 kts 135°
2026-05-06 13:26 52.38313 -1.71065 33017 ft 463 kts 135°
2026-05-06 13:26 52.33932 -1.63334 33019 ft 463 kts 136°
2026-05-06 13:27 52.29525 -1.55782 33013 ft 462 kts 136°
2026-05-06 13:27 52.25056 -1.48229 33004 ft 462 kts 136°
2026-05-06 13:28 52.20602 -1.40677 33018 ft 461 kts 136°
2026-05-06 13:28 52.16157 -1.33144 33022 ft 461 kts 136°
2026-05-06 13:29 52.11744 -1.25678 33018 ft 461 kts 136°
2026-05-06 13:29 52.07292 -1.18174 33009 ft 460 kts 136°
2026-05-06 13:30 52.02840 -1.10704 32979 ft 460 kts 136°
2026-05-06 13:30 51.98351 -1.03294 32980 ft 460 kts 138°
2026-05-06 13:31 51.93618 -0.96333 32985 ft 459 kts 141°
2026-05-06 13:31 51.88808 -0.89654 32981 ft 459 kts 141°
2026-05-06 13:32 51.83991 -0.82859 32981 ft 460 kts 140°
2026-05-06 13:32 51.79217 -0.75984 32971 ft 460 kts 139°
2026-05-06 13:33 51.74459 -0.69128 32973 ft 459 kts 140°
2026-05-06 13:33 51.69622 -0.62233 32977 ft 460 kts 140°
2026-05-06 13:34 51.64955 -0.55342 32985 ft 461 kts 133°
2026-05-06 13:34 51.61406 -0.46767 32984 ft 464 kts 115°
2026-05-06 13:35 51.59234 -0.36927 32984 ft 464 kts 109°
2026-05-06 13:35 51.57198 -0.27076 32975 ft 464 kts 109°
2026-05-06 13:36 51.55140 -0.17242 32981 ft 464 kts 109°
2026-05-06 13:36 51.53079 -0.07415 33010 ft 464 kts 109°
2026-05-06 13:37 51.51008 0.02404 32985 ft 464 kts 109°
2026-05-06 13:37 51.48935 0.12211 32994 ft 464 kts 109°
2026-05-06 13:38 51.46856 0.22006 32985 ft 464 kts 109°
2026-05-06 13:38 51.44763 0.31787 32987 ft 464 kts 110°
2026-05-06 13:39 51.42662 0.41552 32961 ft 464 kts 110°
2026-05-06 13:39 51.40571 0.51244 32967 ft 463 kts 110°
2026-05-06 13:40 51.38458 0.60994 32964 ft 463 kts 109°
2026-05-06 13:40 51.36355 0.70635 32963 ft 463 kts 110°
2026-05-06 13:41 51.34261 0.80219 32962 ft 463 kts 110°
2026-05-06 13:41 51.32127 0.89924 32960 ft 462 kts 109°
2026-05-06 13:42 51.29998 0.99542 32959 ft 462 kts 110°
2026-05-06 13:42 51.28067 1.09317 32953 ft 462 kts 105°
2026-05-06 13:43 51.26468 1.19251 32958 ft 462 kts 105°
2026-05-06 13:43 51.24988 1.28384 32953 ft 461 kts 105°
2026-05-06 13:44 51.23380 1.38232 32949 ft 461 kts 105°
2026-05-06 13:44 51.21762 1.48114 32955 ft 461 kts 105°
2026-05-06 13:45 51.20183 1.57670 32947 ft 460 kts 105°
2026-05-06 13:45 51.18370 1.68528 32952 ft 460 kts 105°
2026-05-06 13:46 51.16803 1.77890 32951 ft 459 kts 105°
2026-05-06 13:46 51.15163 1.87662 32953 ft 460 kts 105°
2026-05-06 13:47 51.13491 1.97572 32971 ft 465 kts 105°
2026-05-06 13:47 51.12663 2.07777 32969 ft 466 kts 95°
2026-05-06 13:48 51.12122 2.18063 32964 ft 466 kts 95°
2026-05-06 13:48 51.11568 2.28275 32952 ft 466 kts 96°
2026-05-06 13:49 51.10994 2.38534 32941 ft 465 kts 96°
2026-05-06 13:49 51.10413 2.48789 32937 ft 465 kts 95°
2026-05-06 13:50 51.09771 2.59012 32933 ft 464 kts 101°
2026-05-06 13:50 51.07750 2.68678 32925 ft 461 kts 119°
2026-05-06 13:51 51.04298 2.77131 32924 ft 459 kts 126°
2026-05-06 13:51 51.00679 2.85487 32924 ft 459 kts 126°
2026-05-06 13:52 50.97053 2.93831 32924 ft 459 kts 126°
2026-05-06 13:52 50.93417 3.02148 32915 ft 458 kts 126°
2026-05-06 13:53 50.89781 3.10443 32909 ft 458 kts 126°
2026-05-06 13:53 50.86144 3.18724 32910 ft 458 kts 126°
2026-05-06 13:54 50.82493 3.27002 32897 ft 458 kts 126°
2026-05-06 13:54 50.78872 3.35196 32904 ft 457 kts 126°
2026-05-06 13:55 50.75226 3.43418 32900 ft 457 kts 126°
2026-05-06 13:55 50.71577 3.51623 32898 ft 456 kts 126°
2026-05-06 13:56 50.67926 3.59800 32897 ft 456 kts 127°
2026-05-06 13:56 50.64268 3.67968 32894 ft 456 kts 127°
2026-05-06 13:57 50.60634 3.76066 32876 ft 456 kts 126°
2026-05-06 13:57 50.56973 3.84200 32879 ft 455 kts 127°
2026-05-06 13:58 50.53462 3.92470 32885 ft 455 kts 124°
2026-05-06 13:58 50.50079 4.00863 32882 ft 454 kts 124°
2026-05-06 13:59 50.46673 4.09217 32877 ft 454 kts 124°
2026-05-06 13:59 50.43238 4.17449 32875 ft 454 kts 124°
2026-05-06 14:00 50.39761 4.25712 32872 ft 454 kts 124°
2026-05-06 14:00 50.36292 4.33976 32877 ft 454 kts 124°
2026-05-06 14:01 50.32825 4.42227 32876 ft 454 kts 124°
2026-05-06 14:01 50.29344 4.50464 32871 ft 454 kts 125°
2026-05-06 14:02 50.25861 4.58689 32870 ft 453 kts 125°
2026-05-06 14:02 50.22407 4.66847 32867 ft 453 kts 124°
2026-05-06 14:03 50.18925 4.75032 32867 ft 452 kts 125°
2026-05-06 14:03 50.15432 4.83195 32863 ft 452 kts 125°
2026-05-06 14:04 50.11941 4.91338 32860 ft 452 kts 125°
2026-05-06 14:04 50.08444 4.99476 32852 ft 452 kts 125°
2026-05-06 14:05 50.04961 5.07545 32839 ft 453 kts 126°
2026-05-06 14:05 50.01442 5.15678 32834 ft 454 kts 126°
2026-05-06 14:06 49.97912 5.23808 32833 ft 454 kts 126°
2026-05-06 14:06 49.94390 5.31887 32831 ft 455 kts 126°
2026-05-06 14:07 49.90844 5.40008 32832 ft 455 kts 125°
2026-05-06 14:07 49.87290 5.48131 32817 ft 455 kts 126°
2026-05-06 14:08 49.83727 5.56236 32824 ft 455 kts 126°
2026-05-06 14:08 49.80161 5.64334 32816 ft 455 kts 126°
2026-05-06 14:09 49.76584 5.72418 32816 ft 455 kts 126°
2026-05-06 14:09 49.73029 5.80428 32813 ft 455 kts 126°
2026-05-06 14:10 49.69444 5.88484 32806 ft 455 kts 127°
2026-05-06 14:10 49.65859 5.96529 32812 ft 454 kts 127°
2026-05-06 14:11 49.62276 6.04550 32819 ft 454 kts 127°
2026-05-06 14:11 49.58707 6.12508 32820 ft 454 kts 127°
2026-05-06 14:12 49.55117 6.20493 32836 ft 453 kts 127°
2026-05-06 14:12 49.51525 6.28443 32820 ft 452 kts 127°
2026-05-06 14:13 49.47746 6.36111 32817 ft 448 kts 137°
2026-05-06 14:13 49.42796 6.41739 32810 ft 442 kts 155°
2026-05-06 14:14 49.37241 6.45575 32804 ft 441 kts 158°
2026-05-06 14:14 49.31628 6.49388 32799 ft 441 kts 158°
2026-05-06 14:15 49.26019 6.53204 32797 ft 441 kts 158°
2026-05-06 14:15 49.20400 6.57012 32800 ft 441 kts 158°
2026-05-06 14:16 49.14815 6.60773 32802 ft 442 kts 158°
2026-05-06 14:16 49.09194 6.64561 32790 ft 442 kts 158°
2026-05-06 14:17 49.03569 6.68339 32800 ft 441 kts 158°
2026-05-06 14:17 48.97939 6.72090 32797 ft 441 kts 158°
2026-05-06 14:18 48.92248 6.75588 32802 ft 441 kts 160°
2026-05-06 14:18 48.86549 6.78863 32804 ft 441 kts 161°
2026-05-06 14:19 48.80814 6.82179 32800 ft 441 kts 160°
2026-05-06 14:19 48.75091 6.85551 32799 ft 442 kts 160°
2026-05-06 14:20 48.69365 6.88936 32804 ft 442 kts 160°
2026-05-06 14:20 48.63635 6.92311 32804 ft 442 kts 160°
2026-05-06 14:21 48.57925 6.95652 32785 ft 441 kts 161°
2026-05-06 14:21 48.52197 6.99000 32796 ft 441 kts 161°
2026-05-06 14:22 48.46482 7.02339 32805 ft 440 kts 161°
2026-05-06 14:22 48.40786 7.05657 32815 ft 440 kts 161°
2026-05-06 14:23 48.37930 7.07311 32641 ft 440 kts 161°
2026-05-06 14:23 48.35075 7.08965 32457 ft 439 kts 161°
2026-05-06 14:23 48.32228 7.10614 32210 ft 438 kts 161°
2026-05-06 14:23 48.29430 7.12235 31434 ft 436 kts 160°
2026-05-06 14:24 48.26600 7.13869 30548 ft 436 kts 160°
2026-05-06 14:24 48.23775 7.15495 29657 ft 434 kts 160°
2026-05-06 14:24 48.20953 7.17117 28509 ft 434 kts 159°
2026-05-06 14:24 48.18117 7.18750 27214 ft 440 kts 159°
2026-05-06 14:25 48.15246 7.20406 25889 ft 445 kts 159°
2026-05-06 14:25 48.12341 7.22079 24609 ft 450 kts 159°
2026-05-06 14:25 48.10409 7.23189 24020 ft 447 kts 159°
2026-05-06 14:25 48.06587 7.25378 22738 ft 442 kts 159°
2026-05-06 14:26 48.03728 7.27012 21822 ft 438 kts 159°
2026-05-06 14:26 48.01212 7.28447 21065 ft 434 kts 159°
2026-05-06 14:26 47.98618 7.29926 20295 ft 430 kts 159°
2026-05-06 14:26 47.95841 7.31511 19815 ft 426 kts 160°
2026-05-06 14:27 47.93064 7.33092 19467 ft 426 kts 160°
2026-05-06 14:27 47.90301 7.34663 19133 ft 423 kts 160°
2026-05-06 14:27 47.87565 7.36218 18793 ft 421 kts 160°
2026-05-06 14:27 47.84838 7.37771 18459 ft 420 kts 159°
2026-05-06 14:28 47.82140 7.39304 18131 ft 421 kts 159°
2026-05-06 14:28 47.79406 7.40851 17759 ft 418 kts 160°
2026-05-06 14:28 47.76698 7.42384 17390 ft 415 kts 160°
2026-05-06 14:28 47.74004 7.43905 17017 ft 413 kts 160°
2026-05-06 14:29 47.71321 7.45418 16655 ft 412 kts 160°
2026-05-06 14:29 47.68650 7.46925 16297 ft 410 kts 160°
2026-05-06 14:29 47.66885 7.47922 16049 ft 409 kts 160°
2026-05-06 14:29 47.63641 7.50768 15592 ft 410 kts 136°
2026-05-06 14:30 47.61914 7.54097 15241 ft 413 kts 123°
2026-05-06 14:30 47.61025 7.56643 14994 ft 415 kts 116°
2026-05-06 14:30 47.59772 7.61998 14537 ft 417 kts 108°
2026-05-06 14:30 47.59266 7.64798 13960 ft 417 kts 107°
2026-05-06 14:31 47.58309 7.70338 12427 ft 414 kts 107°
2026-05-06 14:31 47.57554 7.74334 11767 ft 389 kts 109°
2026-05-06 14:31 47.56783 7.77987 11618 ft 355 kts 111°
2026-05-06 14:31 47.56277 7.80222 11562 ft 335 kts 112°
2026-05-06 14:32 47.55536 7.83347 11451 ft 310 kts 113°
2026-05-06 14:32 47.54809 7.86323 10702 ft 309 kts 113°
2026-05-06 14:32 47.54071 7.89322 9891 ft 310 kts 113°
2026-05-06 14:32 47.53340 7.92323 9021 ft 310 kts 112°
2026-05-06 14:33 47.52617 7.95325 8240 ft 308 kts 113°
2026-05-06 14:33 47.51916 7.98253 7730 ft 296 kts 113°
2026-05-06 14:33 47.51038 8.01971 7105 ft 283 kts 110°
2026-05-06 14:33 47.50851 8.03860 6868 ft 279 kts 87°
2026-05-06 14:34 47.51451 8.06480 6787 ft 256 kts 58°
2026-05-06 14:34 47.52495 8.08503 6796 ft 242 kts 46°
2026-05-06 14:34 47.53637 8.10280 6804 ft 242 kts 44°
2026-05-06 14:34 47.54683 8.12207 6796 ft 240 kts 63°
2026-05-06 14:35 47.55092 8.14565 6798 ft 236 kts 94°
2026-05-06 14:35 47.54728 8.16883 6801 ft 230 kts 122°
2026-05-06 14:35 47.53766 8.18695 6800 ft 222 kts 146°
2026-05-06 14:35 47.52466 8.20003 6806 ft 239 kts 152°
2026-05-06 14:36 47.51036 8.21389 6799 ft 250 kts 151°
2026-05-06 14:36 47.49583 8.22819 6794 ft 252 kts 151°
2026-05-06 14:36 47.48125 8.24269 6798 ft 253 kts 151°
2026-05-06 14:36 47.46667 8.25721 6800 ft 253 kts 151°
2026-05-06 14:37 47.45229 8.27152 6799 ft 253 kts 151°
2026-05-06 14:37 47.43772 8.28599 6799 ft 252 kts 151°
2026-05-06 14:37 47.42311 8.30048 6799 ft 252 kts 151°
2026-05-06 14:37 47.40854 8.31492 6802 ft 252 kts 151°
2026-05-06 14:38 47.39396 8.32939 6804 ft 253 kts 151°
2026-05-06 14:38 47.37927 8.34394 6799 ft 255 kts 151°
2026-05-06 14:38 47.36520 8.35951 6797 ft 260 kts 139°
2026-05-06 14:38 47.35489 8.38170 6800 ft 267 kts 116°
2026-05-06 14:39 47.35053 8.40843 6803 ft 272 kts 98°
2026-05-06 14:39 47.34863 8.43623 6800 ft 272 kts 99°
2026-05-06 14:39 47.34672 8.46397 6816 ft 272 kts 98°
2026-05-06 14:39 47.34478 8.49170 6816 ft 272 kts 98°
2026-05-06 14:40 47.34282 8.51953 6816 ft 273 kts 98°
2026-05-06 14:40 47.34087 8.54733 6818 ft 273 kts 98°
2026-05-06 14:40 47.33890 8.57512 6820 ft 272 kts 98°
2026-05-06 14:40 47.33690 8.60290 6816 ft 272 kts 98°
2026-05-06 14:41 47.33489 8.63065 6820 ft 273 kts 98°
2026-05-06 14:41 47.33290 8.65843 6819 ft 272 kts 98°
2026-05-06 14:41 47.33093 8.68577 6818 ft 272 kts 99°
2026-05-06 14:41 47.32894 8.71350 6820 ft 272 kts 98°
2026-05-06 14:42 47.32693 8.74128 6812 ft 273 kts 98°
2026-05-06 14:42 47.32492 8.76901 6814 ft 273 kts 98°
2026-05-06 14:42 47.32287 8.79701 6814 ft 273 kts 98°
2026-05-06 14:42 47.32083 8.82479 6808 ft 273 kts 98°
2026-05-06 14:43 47.31880 8.85259 6813 ft 272 kts 98°
2026-05-06 14:43 47.31675 8.88032 6808 ft 272 kts 98°
2026-05-06 14:43 47.31470 8.90766 6806 ft 272 kts 98°
2026-05-06 14:43 47.31261 8.93541 6807 ft 273 kts 98°
2026-05-06 14:44 47.31054 8.96310 6799 ft 272 kts 98°
2026-05-06 14:44 47.31017 8.99094 6799 ft 273 kts 78°
2026-05-06 14:44 47.31842 9.01568 6796 ft 269 kts 45°
2026-05-06 14:45 47.35147 9.03490 6799 ft 260 kts
2026-05-06 14:45 47.36924 9.03774 6790 ft 260 kts
2026-05-06 14:45 47.38726 9.04058 6791 ft 261 kts
2026-05-06 14:45 47.40472 9.03762 6790 ft 249 kts 332°
2026-05-06 14:46 47.41827 9.02298 6793 ft 239 kts 303°
2026-05-06 14:46 47.42484 9.00209 6817 ft 214 kts 277°
2026-05-06 14:46 47.42649 8.98119 6816 ft 200 kts 274°
2026-05-06 14:46 47.42800 8.96141 6806 ft 188 kts 274°
2026-05-06 14:47 47.42942 8.94256 6779 ft 184 kts 274°
2026-05-06 14:47 47.43082 8.92384 6605 ft 183 kts 274°
2026-05-06 14:47 47.43220 8.90518 6377 ft 183 kts 274°
2026-05-06 14:47 47.43360 8.88632 6112 ft 187 kts 274°
2026-05-06 14:48 47.43503 8.86702 5831 ft 192 kts 274°
2026-05-06 14:48 47.43650 8.84709 5543 ft 199 kts 274°
2026-05-06 14:48 47.43814 8.82492 5231 ft 194 kts 274°
2026-05-06 14:48 47.43942 8.80751 4966 ft 185 kts 275°
2026-05-06 14:49 47.44078 8.78899 4702 ft 179 kts 274°
2026-05-06 14:49 47.44209 8.77121 4440 ft 171 kts 274°
2026-05-06 14:49 47.44334 8.75411 4184 ft 163 kts 273°
2026-05-06 14:49 47.44453 8.73792 3947 ft 154 kts 273°
2026-05-06 14:50 47.44563 8.72293 3740 ft 140 kts 273°
2026-05-06 14:50 47.44662 8.70927 3540 ft 133 kts 272°
2026-05-06 14:50 47.44757 8.69606 3341 ft 130 kts 273°
2026-05-06 14:50 47.44853 8.68280 3154 ft 128 kts 272°
2026-05-06 14:51 47.44945 8.67005 2970 ft 128 kts 272°
2026-05-06 14:51 47.45041 8.65680 2784 ft 127 kts 273°
2026-05-06 14:51 47.45134 8.64400 2586 ft 127 kts 272°
2026-05-06 14:51 47.45235 8.63098 2362 ft 129 kts 274°
2026-05-06 14:52 47.45314 8.61788 2185 ft 127 kts 273°
2026-05-06 14:52 47.45401 8.60479 1968 ft 129 kts 277°
2026-05-06 14:52 47.45504 8.59167 1774 ft 130 kts 276°
2026-05-06 14:52 47.45602 8.57852 1594 ft 131 kts 274°
2026-05-06 14:53 47.45706 8.56540 1439 ft 126 kts 273°
2026-05-06 14:53 47.45777 8.55395 1409 ft 87 kts 276°
2026-05-06 14:53 47.45814 8.54864 1389 ft 37 kts 275°
2026-05-06 14:53 47.45817 8.54514 1386 ft 31 kts 259°
2026-05-06 14:54 47.45750 8.54255 1384 ft 20 kts 243°
2026-05-06 14:54 47.45644 8.54228 1385 ft 16 kts 147°
2026-05-06 14:54 47.45596 8.54351 1386 ft 13 kts 109°
2026-05-06 14:54 47.45570 8.54460 1386 ft 9 kts 109°
2026-05-06 14:55 47.45552 8.54537 1390 ft 6 kts 109°
2026-05-06 14:55 47.45543 8.54590 1386 ft 4 kts 104°
2026-05-06 14:55 47.45537 8.54620 1389 ft 3 kts 105°
2026-05-06 14:55 47.45523 8.54690 1397 ft 11 kts 109°
2026-05-06 14:56 47.45501 8.54782 1402 ft 8 kts 109°
2026-05-06 14:56 47.45497 8.54802 1397 ft 0 kts 109°
2026-05-06 14:57 47.45494 8.54814 1397 ft 6 kts 109°
2026-05-06 14:58 47.45472 8.54913 1398 ft 10 kts 108°
2026-05-06 14:58 47.45453 8.54987 1400 ft 9 kts 112°
2026-05-06 14:58 47.45384 8.55283 1402 ft 52 kts 107°
2026-05-06 14:58 47.45300 8.55483 1413 ft 11 kts 129°
2026-05-06 14:59 47.45313 8.55531 1410 ft 2 kts 13°
2026-05-06 14:59 47.45343 8.55530 1408 ft 10 kts 349°
2026-05-06 14:59 47.45410 8.55486 1406 ft 15 kts 334°
2026-05-06 14:59 47.45532 8.55401 1408 ft 21 kts 335°
2026-05-06 15:00 47.45645 8.55324 1399 ft 11 kts 336°
2026-05-06 15:00 47.45711 8.55296 1404 ft 9 kts 344°
2026-05-06 15:00 47.45770 8.55262 1402 ft 11 kts 333°
2026-05-06 15:00 47.45858 8.55197 1406 ft 14 kts 334°
2026-05-06 15:01 47.45933 8.55145 1402 ft 11 kts 335°
2026-05-06 15:01 47.45999 8.55100 1399 ft 10 kts 336°
2026-05-06 15:01 47.46051 8.55065 1400 ft 7 kts 335°
2026-05-06 15:01 47.46092 8.55037 1393 ft 8 kts 335°
2026-05-06 15:02 47.46137 8.55006 1399 ft 11 kts 335°
2026-05-06 15:02 47.46244 8.54945 1389 ft 15 kts
2026-05-06 15:02 47.46282 8.54998 1389 ft 6 kts 55°
2026-05-06 15:02 47.46287 8.55048 1391 ft 6 kts 97°
2026-05-06 15:03 47.46277 8.55191 1393 ft 15 kts 96°
2026-05-06 15:03 47.46269 8.55315 1395 ft 9 kts 95°
2026-05-06 15:03 47.46264 8.55385 1401 ft 5 kts 97°
2026-05-06 15:03 47.46258 8.55454 1397 ft 5 kts 96°
2026-05-06 15:04 47.46255 8.55493 1398 ft 7 kts 96°
2026-05-06 15:04 47.46250 8.55570 1403 ft 6 kts 94°
2026-05-06 15:04 47.46247 8.55628 1399 ft 7 kts 95°
2026-05-06 15:04 47.46239 8.55682 1400 ft 3 kts 120°
2026-05-06 15:05 47.46200 8.55690 1404 ft 9 kts 184°
2026-05-06 15:05 47.46161 8.55683 1402 ft 0 kts 187°
2026-05-06 15:05 47.46159 8.55683 1402 ft 2 kts 181°
2026-05-06 15:05 47.46152 8.55682 1402 ft 0 kts 185°